Flag for Argentina Weather for the Past 2 Weeks in Comodoro Rivadavia, Chubut, Argentina

Now
55 °F

Passing clouds.


Feels Like: 50 °F
Forecast: 56 / 71 °F
Wind: 24 mph from West

Location: Comodoro Rivadavia Aerodrome

Current Time: Feb 13, 2016 at 6:55:26 AM

Latest Report: Feb 13, 2016 at 6:00 AM


Visibility: N/A

Pressure: 29.56 "Hg

Humidity: 41%

Dew point: 32 °F

Location of Comodoro RivadaviaLocation

Historic Weather in Comodoro Rivadavia — Graph

°F

Comodoro Rivadavia Temperature Yesterday

Maximum temperature yesterday: 84 °F (at 2:00 PM)
Minimum temperature yesterday: 63 °F (at 5:00 PM)
Average temperature yesterday: 70 °F

High & Low Weather Summary for the Past Weeks

 TemperatureHumidityPressure
High91 °F (Feb 11, 3:00 PM)100% (Feb 7, 3:00 AM)30.36 "Hg (Feb 7, 3:00 AM)
Low48 °F (Feb 6, 3:00 AM)17% (Feb 11, 6:00 PM)29.30 "Hg (Feb 12, 6:00 PM)
Average67 °F55%29.89 "Hg
* Reported Jan 29 5:00 AM — Feb 13 5:00 AM, Comodoro Rivadavia, Weather by CustomWeather, © 2016

Note: Actual official high and low records may vary slightly from our data, if they occured in-between our weather recording intervals... More about our weather records

Advertising

Comodoro Rivadavia Weather History for the Previous 24 Hours

 ConditionsComfort  
Time TempWeatherWind HumidityBarometerVisibility
5:00 AM
Sat, Feb 13
55 °FPassing clouds.23 mph41%29.50 "HgN/A
4:00 AM55 °FClear.18 mph41%29.50 "Hg10 mi
3:00 AM57 °FPassing clouds.23 mph41%29.47 "HgN/A
2:00 AM61 °FPassing clouds.24 mph39%29.45 "HgN/A
1:00 AM61 °FPassing clouds.13 mph55%29.42 "HgN/A
12:00 AM63 °FClear.13 mph56%29.39 "Hg10 mi
11:00 PM
Fri, Feb 12
64 °FPassing clouds.16 mph49%29.39 "HgN/A
10:00 PM64 °FPassing clouds.18 mph46%29.33 "HgN/A
9:00 PM66 °FPassing clouds.12 mph56%29.30 "HgN/A
8:00 PM66 °FPassing clouds.14 mph64%29.30 "HgN/A
7:00 PM64 °FScattered clouds.12 mph73%29.30 "HgN/A
6:15 PM63 °FSprinkles. Partly sunny.12 mph77%29.33 "HgN/A
6:00 PM63 °FPartly sunny.7 mph77%29.30 "HgN/A
5:00 PM63 °FLight rain. Broken clouds.12 mph77%29.36 "HgN/A
4:00 PM77 °FThunderstorms. Partly sunny.12 mph34%29.33 "HgN/A
3:00 PM75 °FPartly sunny.16 mph44%29.33 "HgN/A
2:00 PM84 °FPartly sunny.18 mph20%29.36 "HgN/A
1:00 PM81 °FScattered clouds.13 mph26%29.42 "HgN/A
12:00 PM79 °FScattered clouds.9 mph34%29.47 "HgN/A
11:00 AM79 °FPassing clouds.16 mph32%29.50 "HgN/A
10:00 AM72 °FSunny.9 mph44%29.53 "Hg10 mi
9:00 AM70 °FSunny.9 mph46%29.56 "Hg10 mi
8:00 AM66 °FSunny.1 mph68%29.56 "Hg10 mi
7:00 AM68 °FPassing clouds.3 mph56%29.59 "HgN/A
6:00 AM68 °FSunny.9 mph46%29.59 "Hg10 mi
Weather by CustomWeather, © 2016

See weather overviewHow to use our weather pages